GW5368 Weather Reports


time (UTC)temp
C
wind
direction
speed
KPH
gust
KPH
rain 1hr
cm
rain 24hr
cm
rain mn
cm
humidity
%
barometer
mb
20260505004529 18 360 0.0 3.2 0.00 0.00 0.00 62 1012.0
20260505004006 18 142 0.0 1.6 0.00 0.00 0.00 61 1012.1
20260505003506 18 360 0.0 1.6 0.00 0.00 0.00 61 1012.0
20260505003022 18 360 0.0 1.6 0.00 0.00 0.00 60 1012.0
20260505002506 18 360 0.0 3.2 0.00 0.00 0.00 60 1012.0
20260505002009 18 360 0.0 3.2 0.00 0.00 0.00 60 1012.0
20260505001524 19 360 0.0 3.2 0.00 0.00 0.00 60 1012.1
20260505001006 19 360 0.0 3.2 0.00 0.00 0.00 60 1011.9
20260505000507 19 360 0.0 3.2 0.00 0.00 0.00 60 1011.8
20260505000012 20 360 0.0 1.6 0.00 0.00 0.00 59 1011.7
20260504235504 20 360 0.0 3.2 0.00 0.00 0.00 59 1011.7
20260504235004 20 360 0.0 3.2 0.00 0.00 0.00 58 1011.6
20260504234515 20 360 0.0 1.6 0.00 0.00 0.00 58 1011.6
20260504234003 20 360 0.0 1.6 0.00 0.00 0.00 57 1011.5
20260504233507 20 360 0.0 3.2 0.00 0.00 0.00 57 1011.5
20260504233021 20 360 0.0 3.2 0.00 0.00 0.00 56 1011.5
20260504232507 20 360 0.0 3.2 0.00 0.00 0.00 56 1011.4
20260504232007 21 360 0.0 3.2 0.00 0.00 0.00 55 1011.5
20260504231522 21 360 0.0 4.8 0.00 0.00 0.00 55 1011.5
20260504231011 21 360 0.0 4.8 0.00 0.00 0.00 54 1011.4
20260504230507 21 360 1.6 3.2 0.00 0.00 0.00 53 1011.4
20260504230024 21 360 0.0 3.2 0.00 0.00 0.00 52 1011.3
20260504225508 22 360 0.0 3.2 0.00 0.00 0.00 51 1011.4
20260504225003 22 360 0.0 4.8 0.00 0.00 0.00 49 1011.4
20260504224508 22 360 0.0 4.8 0.00 0.00 0.00 46 1011.4
20260504224003 22 360 0.0 4.8 0.00 0.00 0.00 39 1011.4
20260504223507 22 360 1.6 8.0 0.00 0.00 0.00 39 1011.3
20260504223014 22 360 1.6 8.0 0.00 0.00 0.00 39 1011.3
20260504222504 22 360 1.6 6.4 0.00 0.00 0.00 38 1011.3
20260504222008 22 360 0.0 6.4 0.00 0.00 0.00 38 1011.3
20260504221519 22 360 0.0 6.4 0.00 0.00 0.00 38 1011.4
20260504221006 22 360 1.6 6.4 0.00 0.00 0.00 39 1011.3
20260504220509 22 360 1.6 4.8 0.00 0.00 0.00 38 1011.3
20260504220024 22 360 1.6 4.8 0.00 0.00 0.00 38 1011.3
20260504215508 23 360 1.6 6.4 0.00 0.00 0.00 38 1011.4
20260504215011 22 360 1.6 6.4 0.00 0.00 0.00 37 1011.4
20260504214528 23 360 1.6 6.4 0.00 0.00 0.00 37 1011.4
20260504214007 23 360 1.6 9.7 0.00 0.00 0.00 37 1011.5
20260504213504 23 360 1.6 9.7 0.00 0.00 0.00 36 1011.5
20260504213029 23 224 3.2 8.0 0.00 0.00 0.00 36 1011.5
20260504212504 23 360 3.2 8.0 0.00 0.00 0.00 36 1011.5
20260504212004 23 360 1.6 8.0 0.00 0.00 0.00 36 1011.5
20260504211516 23 360 1.6 9.7 0.00 0.00 0.00 35 1011.5
20260504211004 23 360 3.2 9.7 0.00 0.00 0.00 35 1011.4
20260504210511 23 360 3.2 8.0 0.00 0.00 0.00 35 1011.5
20260504210023 23 360 3.2 8.0 0.00 0.00 0.00 35 1011.5
20260504205508 23 360 3.2 8.0 0.00 0.00 0.00 36 1011.5
20260504205007 23 360 3.2 8.0 0.00 0.00 0.00 35 1011.4
20260504204524 23 360 1.6 8.0 0.00 0.00 0.00 36 1011.5
20260504204008 23 360 1.6 14.5 0.00 0.00 0.00 35 1011.5
20260504203509 23 360 4.8 14.5 0.00 0.00 0.00 35 1011.5
20260504203026 23 360 3.2 9.7 0.00 0.00 0.00 35 1011.6
20260504202512 23 155 3.2 8.0 0.00 0.00 0.00 35 1011.6
20260504202012 24 219 1.6 12.9 0.00 0.00 0.00 35 1011.6
20260504201516 24 212 1.6 12.9 0.00 0.00 0.00 35 1011.7
20260504201006 25 192 3.2 8.0 0.00 0.00 0.00 34 1011.7
20260504200506 25 227 1.6 8.0 0.00 0.00 0.00 33 1011.7
20260504200020 25 237 1.6 9.7 0.00 0.00 0.00 33 1011.7
20260504195507 25 257 1.6 9.7 0.00 0.00 0.00 33 1011.7
20260504195007 25 230 3.2 8.0 0.00 0.00 0.00 33 1011.8
20260504194526 25 263 1.6 6.4 0.00 0.00 0.00 32 1011.9
20260504194007 25 232 1.6 6.4 0.00 0.00 0.00 32 1011.9
20260504193508 26 188 1.6 8.0 0.00 0.00 0.00 33 1011.9
20260504193027 26 178 1.6 8.0 0.00 0.00 0.00 32 1012.0
20260504192508 26 215 1.6 8.0 0.00 0.00 0.00 32 1012.1
20260504192008 26 177 0.0 11.3 0.00 0.00 0.00 33 1012.1
20260504191546 25 174 1.6 11.3 0.00 0.00 0.00 33 1012.1
20260504191009 25 217 3.2 9.7 0.00 0.00 0.00 33 1012.3
20260504190509 25 206 1.6 11.3 0.00 0.00 0.00 33 1012.4
20260504190021 25 121 1.6 12.9 0.00 0.00 0.00 33 1012.3
20260504185508 25 232 1.6 12.9 0.00 0.00 0.00 33 1012.4
20260504185007 25 219 0.0 8.0 0.00 0.00 0.00 33 1012.5
20260504184538 24 253 1.6 9.7 0.00 0.00 0.00 34 1012.5
20260504184013 24 325 3.2 9.7 0.00 0.00 0.00 33 1012.5
20260504183508 24 150 1.6 8.0 0.00 0.00 0.00 32 1012.5
20260504183024 25 120 1.6 8.0 0.00 0.00 0.00 33 1012.7
20260504182517 24 360 3.2 8.0 0.00 0.00 0.00 33 1012.7
20260504182003 25 128 1.6 8.0 0.00 0.00 0.00 33 1012.8
20260504181510 25 360 3.2 8.0 0.00 0.00 0.00 33 1012.8
20260504181005 25 360 1.6 6.4 0.00 0.00 0.00 34 1012.9
20260504180507 24 360 1.6 8.0 0.00 0.00 0.00 34 1013.0
20260504180016 24 211 1.6 8.0 0.00 0.00 0.00 34 1013.1
20260504175502 24 179 1.6 6.4 0.00 0.00 0.00 34 1013.0
20260504175003 25 192 1.6 9.7 0.00 0.00 0.00 34 1013.1
20260504174503 24 170 1.6 9.7 0.00 0.00 0.00 34 1013.2
20260504174003 24 50 1.6 8.0 0.00 0.00 0.00 33 1013.1
20260504173502 24 166 1.6 8.0 0.00 0.00 0.00 34 1013.2
20260504173011 23 182 0.0 11.3 0.00 0.00 0.00 34 1013.3
20260504172503 23 360 1.6 11.3 0.00 0.00 0.00 35 1013.3
20260504172004 23 210 1.6 6.4 0.00 0.00 0.00 33 1013.4
20260504171506 23 201 3.2 11.3 0.00 0.00 0.00 35 1013.6
20260504171004 23 201 3.2 11.3 0.00 0.00 0.00 35 1013.6
20260504170509 23 248 1.6 9.7 0.00 0.00 0.00 34 1013.5
20260504151003 21 360 1.6 12.9 0.00 0.00 0.00 45 1014.3
20260504150506 21 246 1.6 12.9 0.00 0.00 0.00 46 1014.3
20260504141006 18 360 0.0 9.7 0.00 0.00 0.00 56 1014.9
20260504140504 18 360 1.6 6.4 0.00 0.00 0.00 57 1014.9
20260504130507 14 360 1.6 4.8 0.00 0.00 0.00 73 1015.7
20260504110507 10 58 0.0 0.0 0.00 0.00 0.00 84 1016.4
20260504100506 10 103 0.0 1.6 0.00 0.00 0.00 84 1016.1
20260504082006 9 172 0.0 3.2 0.00 0.00 0.00 83 1016.4
20260504081509 8 172 0.0 3.2 0.00 0.00 0.00 82 1016.4
20260504081005 8 172 0.0 3.2 0.00 0.00 0.00 82 1016.4
20260504080503 8 172 0.0 3.2 0.00 0.00 0.00 82 1016.4
20260504050508 7 5 0.0 3.2 0.00 0.00 0.00 72 1016.5
20260504050024 7 5 0.0 3.2 0.00 0.00 0.00 72 1016.5
20260504045507 7 5 0.0 1.6 0.00 0.00 0.00 72 1016.5
20260504045007 7 5 0.0 0.0 0.00 0.00 0.00 72 1016.5
20260504044507 7 5 0.0 0.0 0.00 0.00 0.00 71 1016.4
20260504044006 7 5 0.0 0.0 0.00 0.00 0.00 71 1016.5
20260504043504 7 5 0.0 1.6 0.00 0.00 0.00 71 1016.4
20260504043015 7 5 0.0 1.6 0.00 0.00 0.00 70 1016.4
20260504042506 7 5 0.0 1.6 0.00 0.00 0.00 69 1016.4
20260504042008 7 5 0.0 1.6 0.00 0.00 0.00 69 1016.4
20260504041518 7 5 0.0 1.6 0.00 0.00 0.00 69 1016.3
20260504041008 7 5 0.0 1.6 0.00 0.00 0.00 69 1016.2
20260504040508 7 5 0.0 1.6 0.00 0.00 0.00 69 1016.1
20260504040022 7 5 0.0 1.6 0.00 0.00 0.00 69 1016.1
20260504035509 7 5 0.0 1.6 0.00 0.00 0.00 69 1016.1
20260504035007 7 5 0.0 0.0 0.00 0.00 0.00 68 1016.1
20260504034529 7 5 0.0 0.0 0.00 0.00 0.00 68 1016.1
20260504034010 7 5 0.0 0.0 0.00 0.00 0.00 67 1016.0
20260504033511 7 5 0.0 0.0 0.00 0.00 0.00 67 1016.0
20260504033009 7 5 0.0 0.0 0.00 0.00 0.00 67 1016.0
20260504032504 7 5 0.0 0.0 0.00 0.00 0.00 67 1016.0
20260504032007 7 5 0.0 0.0 0.00 0.00 0.00 66 1016.0
20260504031516 7 5 0.0 0.0 0.00 0.00 0.00 66 1015.9
20260504031007 8 5 0.0 0.0 0.00 0.00 0.00 66 1015.9
20260504030504 8 5 0.0 0.0 0.00 0.00 0.00 66 1016.0
20260504030003 8 5 0.0 0.0 0.00 0.00 0.00 65 1016.0
20260504025504 8 5 0.0 0.0 0.00 0.00 0.00 65 1016.0
20260504025004 8 5 0.0 1.6 0.00 0.00 0.00 65 1016.0
20260504024509 8 5 0.0 1.6 0.00 0.00 0.00 65 1016.0
20260504024005 8 5 0.0 0.0 0.00 0.00 0.00 65 1015.9
20260504023503 8 5 0.0 0.0 0.00 0.00 0.00 64 1016.0
20260504023006 8 5 0.0 1.6 0.00 0.00 0.00 63 1016.0
20260504022503 8 5 0.0 1.6 0.00 0.00 0.00 63 1016.0
20260504022004 8 5 0.0 0.0 0.00 0.00 0.00 63 1016.0
20260504021512 8 5 0.0 1.6 0.00 0.00 0.00 63 1016.0
20260504021004 8 5 0.0 1.6 0.00 0.00 0.00 62 1015.9
20260504020503 9 5 0.0 0.0 0.00 0.00 0.00 62 1015.9
20260504020020 9 5 0.0 0.0 0.00 0.00 0.00 61 1015.9
20260504015502 9 5 0.0 1.6 0.00 0.00 0.00 60 1015.8
20260504015002 9 5 0.0 1.6 0.00 0.00 0.00 61 1015.8
20260504014504 10 5 0.0 0.0 0.00 0.00 0.00 60 1015.7
20260504014005 10 5 0.0 0.0 0.00 0.00 0.00 59 1015.7
20260504013505 10 5 0.0 0.0 0.00 0.00 0.00 58 1015.6
20260504013009 10 5 0.0 0.0 0.00 0.00 0.00 58 1015.6
20260504012504 10 5 0.0 0.0 0.00 0.00 0.00 58 1015.6
20260504012003 10 5 0.0 1.6 0.00 0.00 0.00 58 1015.6
20260504011508 10 5 0.0 1.6 0.00 0.00 0.00 58 1015.5
20260504011007 10 5 0.0 0.0 0.00 0.00 0.00 58 1015.5
20260504010506 11 9 0.0 0.0 0.00 0.00 0.00 56 1015.5
20260504010015 11 5 0.0 0.0 0.00 0.00 0.00 55 1015.4
20260504005504 11 5 0.0 0.0 0.00 0.00 0.00 54 1015.4
20260504005007 11 5 0.0 0.0 0.00 0.00 0.00 53 1015.3